• In Belarus
  • List of Countries
  • For 7 days
  • Water Temperature
  • Satellite Maps
  • Weather Map
  • Weather Widgets
  • user-avatar
    Login

    Hourly Weather Phohan

    Today, 18 January, Friday

    Time Temperature Precipitation Wind Pressure Humidity
    00:00 -4°C° 0 mm 6 mps 764 mmHg 50%
    01:00 -4°C° 0 mm 6 mps 764 mmHg 50%
    02:00 -4°C° 0 mm 6 mps 765 mmHg 51%
    03:00 -5°C° 0 mm 5 mps 765 mmHg 51%
    04:00 -5°C° 0 mm 5 mps 765 mmHg 51%
    05:00 -5°C° 0 mm 5 mps 765 mmHg 51%
    06:00 -4°C° 0 mm 4 mps 765 mmHg 51%
    07:00 -4°C° 0 mm 5 mps 765 mmHg 48%
    08:00 -4°C° 0 mm 5 mps 766 mmHg 44%
    09:00 -2°C° 0 mm 5 mps 766 mmHg 41%
    10:00 0°C° 0 mm 5 mps 766 mmHg 37%
    11:00 +2°C° 0 mm 5 mps 766 mmHg 34%
    12:00 +3°C° 0 mm 5 mps 765 mmHg 30%
    13:00 +5°C° 0 mm 4 mps 765 mmHg 31%
    14:00 +5°C° 0 mm 4 mps 765 mmHg 33%
    15:00 +6°C° 0 mm 4 mps 765 mmHg 35%
    16:00 +4°C° 0 mm 4 mps 765 mmHg 42%
    17:00 +3°C° 0 mm 4 mps 765 mmHg 49%
    18:00 +1°C° 0 mm 3 mps 765 mmHg 57%
    19:00 +1°C° 0 mm 3 mps 765 mmHg 59%
    20:00 +1°C° 0 mm 3 mps 765 mmHg 62%
    21:00 0°C° 0 mm 3 mps 765 mmHg 64%
    22:00 0°C° 0 mm 3 mps 765 mmHg 66%
    23:00 0°C° 0 mm 3 mps 765 mmHg 67%

    Tomorrow, 19 January, Saturday

    Time Temperature Precipitation Wind Pressure Humidity
    00:00 +1°C° 0 mm 3 mps 765 mmHg 68%
    01:00 0°C° 0 mm 3 mps 764 mmHg 70%
    02:00 0°C° 0 mm 3 mps 764 mmHg 71%
    03:00 0°C° 0 mm 3 mps 764 mmHg 72%
    04:00 0°C° 0 mm 3 mps 764 mmHg 72%
    05:00 0°C° 0 mm 3 mps 764 mmHg 73%
    06:00 0°C° 0 mm 3 mps 764 mmHg 73%
    07:00 +1°C° 0 mm 3 mps 764 mmHg 70%
    08:00 +1°C° 0 mm 3 mps 764 mmHg 67%
    09:00 +2°C° 0 mm 3 mps 764 mmHg 64%
    10:00 +4°C° 0 mm 3 mps 764 mmHg 60%
    11:00 +5°C° 0 mm 3 mps 764 mmHg 56%
    12:00 +8°C° 0 mm 3 mps 763 mmHg 51%
    13:00 +8°C° 0 mm 3 mps 763 mmHg 51%
    14:00 +7°C° 0 mm 4 mps 762 mmHg 51%
    15:00 +8°C° 0 mm 4 mps 762 mmHg 50%
    16:00 +7°C° 0 mm 3 mps 761 mmHg 57%
    17:00 +5°C° 0 mm 3 mps 761 mmHg 64%
    18:00 +3°C° 0 mm 3 mps 761 mmHg 71%
    19:00 +3°C° 0 mm 3 mps 761 mmHg 73%
    20:00 +2°C° 0 mm 3 mps 761 mmHg 76%
    21:00 +2°C° 0 mm 3 mps 761 mmHg 78%
    22:00 +1°C° 0 mm 3 mps 760 mmHg 79%
    23:00 +1°C° 0 mm 3 mps 760 mmHg 80%

    Day after tomorrow, 20 January, Sunday

    Time Temperature Precipitation Wind Pressure Humidity
    00:00 +1°C° 0 mm 3 mps 760 mmHg 82%
    01:00 +1°C° 0 mm 3 mps 760 mmHg 82%
    02:00 +1°C° 0 mm 3 mps 760 mmHg 83%
    03:00 0°C° 0 mm 4 mps 759 mmHg 83%
    04:00 0°C° 0 mm 5 mps 759 mmHg 79%
    05:00 -1°C° 0 mm 6 mps 759 mmHg 74%
    06:00 -2°C° 0 mm 7 mps 758 mmHg 69%
    07:00 -2°C° 0 mm 7 mps 759 mmHg 60%
    08:00 -2°C° 0 mm 8 mps 759 mmHg 51%
    09:00 -2°C° 0 mm 8 mps 760 mmHg 42%
    10:00 -1°C° 0 mm 8 mps 760 mmHg 37%
    11:00 0°C° 0 mm 9 mps 760 mmHg 31%
    12:00 0°C° 0 mm 9 mps 760 mmHg 26%
    13:00 0°C° 0 mm 9 mps 760 mmHg 26%
    14:00 0°C° 0 mm 8 mps 760 mmHg 26%
    15:00 0°C° 0 mm 8 mps 760 mmHg 25%
    16:00 -1°C° 0 mm 7 mps 760 mmHg 28%
    17:00 -2°C° 0 mm 7 mps 761 mmHg 31%
    18:00 -4°C° 0 mm 7 mps 761 mmHg 34%
    19:00 -4°C° 0 mm 7 mps 762 mmHg 35%
    20:00 -6°C° 0 mm 7 mps 762 mmHg 35%
    21:00 -7°C° 0 mm 7 mps 762 mmHg 36%
    22:00 -6°C° 0 mm 6 mps 762 mmHg 36%
    23:00 -6°C° 0 mm 6 mps 762 mmHg 36%

    21 January, Monday

    Time Temperature Precipitation Wind Pressure Humidity
    00:00 -6°C° 0 mm 5 mps 762 mmHg 37%
    01:00 -6°C° 0 mm 6 mps 762 mmHg 37%
    02:00 -8°C° 0 mm 6 mps 762 mmHg 37%
    03:00 -8°C° 0 mm 6 mps 762 mmHg 36%
    04:00 -6°C° 0 mm 6 mps 762 mmHg 35%
    05:00 -6°C° 0 mm 6 mps 762 mmHg 33%
    06:00 -6°C° 0 mm 6 mps 762 mmHg 32%
    07:00 -6°C° 0 mm 6 mps 762 mmHg 30%
    08:00 -5°C° 0 mm 6 mps 762 mmHg 28%
    09:00 -4°C° 0 mm 6 mps 762 mmHg 26%
    10:00 -3°C° 0 mm 7 mps 762 mmHg 30%
    11:00 -1°C° 0 mm 7 mps 762 mmHg 34%
    12:00 0°C° 0 mm 8 mps 761 mmHg 39%
    13:00 +1°C° 0 mm 8 mps 761 mmHg 41%
    14:00 +2°C° 0 mm 8 mps 760 mmHg 43%
    15:00 +4°C° 0 mm 8 mps 759 mmHg 45%
    16:00 +3°C° 0 mm 7 mps 759 mmHg 52%
    17:00 +1°C° 0 mm 6 mps 758 mmHg 58%
    18:00 0°C° 0 mm 5 mps 758 mmHg 65%
    19:00 -1°C° 0 mm 6 mps 758 mmHg 67%
    20:00 -2°C° 0 mm 6 mps 758 mmHg 69%
    21:00 -2°C° 0 mm 6 mps 758 mmHg 71%
    22:00 -2°C° 0 mm 6 mps 758 mmHg 72%
    23:00 -2°C° 0 mm 7 mps 758 mmHg 72%

    22 January, Tuesday

    Time Temperature Precipitation Wind Pressure Humidity
    00:00 -2°C° 0 mm 7 mps 757 mmHg 72%
    01:00 -2°C° 0 mm 7 mps 757 mmHg 70%
    02:00 -3°C° 0 mm 6 mps 757 mmHg 69%
    03:00 -3°C° 0 mm 6 mps 757 mmHg 67%
    04:00 -3°C° 0 mm 7 mps 757 mmHg 59%
    05:00 -4°C° 0 mm 7 mps 757 mmHg 52%
    06:00 -6°C° 0 mm 7 mps 757 mmHg 44%
    07:00 -4°C° 0 mm 7 mps 758 mmHg 42%
    08:00 -5°C° 0 mm 8 mps 758 mmHg 39%
    09:00 -4°C° 0 mm 8 mps 759 mmHg 37%
    10:00 -2°C° 0 mm 8 mps 759 mmHg 35%
    11:00 -1°C° 0 mm 8 mps 759 mmHg 32%
    12:00 +2°C° 0 mm 7 mps 759 mmHg 30%
    13:00 +2°C° 0 mm 7 mps 759 mmHg 30%
    14:00 +2°C° 0 mm 7 mps 758 mmHg 31%
    15:00 +3°C° 0 mm 6 mps 758 mmHg 31%
    16:00 +2°C° 0 mm 6 mps 758 mmHg 36%
    17:00 -1°C° 0 mm 6 mps 759 mmHg 40%
    18:00 -2°C° 0 mm 6 mps 759 mmHg 45%
    19:00 -3°C° 0 mm 6 mps 759 mmHg 47%
    20:00 -3°C° 0 mm 6 mps 760 mmHg 48%
    21:00 -4°C° 0 mm 6 mps 760 mmHg 50%
    22:00 -4°C° 0 mm 6 mps 760 mmHg 50%
    23:00 -4°C° 0 mm 6 mps 760 mmHg 51%

    23 January, Wednesday

    Time Temperature Precipitation Wind Pressure Humidity
    00:00 -4°C° 0 mm 6 mps 760 mmHg 51%
    01:00 -4°C° 0 mm 6 mps 760 mmHg 49%
    02:00 -4°C° 0 mm 7 mps 760 mmHg 48%
    03:00 -4°C° 0 mm 7 mps 760 mmHg 46%
    04:00 -4°C° 0 mm 6 mps 760 mmHg 45%
    05:00 -5°C° 0 mm 6 mps 760 mmHg 44%
    06:00 -5°C° 0 mm 6 mps 760 mmHg 43%
    07:00 -4°C° 0 mm 6 mps 761 mmHg 44%
    08:00 -2°C° 0 mm 5 mps 761 mmHg 44%
    09:00 -2°C° 0 mm 5 mps 761 mmHg 44%
    10:00 -1°C° 0 mm 6 mps 761 mmHg 45%
    11:00 +2°C° 0 mm 6 mps 761 mmHg 45%
    12:00 +4°C° 0 mm 7 mps 761 mmHg 45%
    13:00 +4°C° 0 mm 6 mps 761 mmHg 43%
    14:00 +5°C° 0 mm 6 mps 761 mmHg 41%
    15:00 +6°C° 0 mm 5 mps 761 mmHg 38%
    16:00 +5°C° 0 mm 5 mps 761 mmHg 42%
    17:00 +3°C° 0 mm 4 mps 762 mmHg 46%
    18:00 +1°C° 0 mm 3 mps 762 mmHg 49%
    19:00 +1°C° 0 mm 3 mps 763 mmHg 51%
    20:00 +1°C° 0 mm 2 mps 763 mmHg 52%
    21:00 -1°C° 0 mm 2 mps 764 mmHg 53%
    22:00 -1°C° 0 mm 2 mps 764 mmHg 53%
    23:00 -1°C° 0 mm 2 mps 764 mmHg 52%
    Show more